• In Czech Republic
  • List of Countries
  • For 7 days
  • Water Temperature
  • Satellite Maps
  • Weather Map
  • Weather Widgets
  • user-avatar
    Login

    Hourly Weather Yulara

    Today, 18 October, Thursday

    Time Temperature Precipitation Wind Pressure Humidity
    00:00 +25°C° 0 mm 5 mps 717 mmHg 18%
    01:00 +23°C° 0 mm 5 mps 717 mmHg 19%
    02:00 +23°C° 0 mm 5 mps 717 mmHg 21%
    03:00 +22°C° 0 mm 5 mps 717 mmHg 23%
    04:00 +21°C° 0 mm 5 mps 717 mmHg 24%
    05:00 +21°C° 0 mm 5 mps 717 mmHg 25%
    06:00 +20°C° 0 mm 5 mps 717 mmHg 26%
    07:00 +23°C° 0 mm 6 mps 717 mmHg 22%
    08:00 +27°C° 0 mm 6 mps 718 mmHg 19%
    09:00 +29°C° 0 mm 7 mps 718 mmHg 16%
    10:00 +32°C° 0 mm 7 mps 718 mmHg 15%
    11:00 +34°C° 0 mm 7 mps 718 mmHg 15%
    12:00 +36°C° 0 mm 6 mps 717 mmHg 14%
    13:00 +38°C° 0 mm 6 mps 717 mmHg 14%
    14:00 +38°C° 0 mm 6 mps 716 mmHg 13%
    15:00 +39°C° 0 mm 6 mps 715 mmHg 12%
    16:00 +39°C° 0 mm 6 mps 715 mmHg 13%
    17:00 +37°C° 0 mm 5 mps 715 mmHg 14%
    18:00 +37°C° 0 mm 5 mps 715 mmHg 14%
    19:00 +36°C° 0 mm 5 mps 715 mmHg 16%
    20:00 +35°C° 0 mm 5 mps 716 mmHg 18%
    21:00 +34°C° 0 mm 5 mps 716 mmHg 20%
    22:00 +33°C° 0 mm 5 mps 716 mmHg 24%
    23:00 +33°C° 0 mm 5 mps 716 mmHg 27%

    Tomorrow, 19 October, Friday

    Time Temperature Precipitation Wind Pressure Humidity
    00:00 +32°C° 0 mm 5 mps 716 mmHg 30%
    01:00 +30°C° 0 mm 6 mps 715 mmHg 34%
    02:00 +30°C° 0 mm 6 mps 715 mmHg 38%
    03:00 +29°C° 0 mm 7 mps 714 mmHg 43%
    04:00 +29°C° 0 mm 6 mps 714 mmHg 44%
    05:00 +29°C° 0 mm 6 mps 714 mmHg 46%
    06:00 +28°C° 0 mm 6 mps 714 mmHg 47%
    07:00 +31°C° 0 mm 8 mps 715 mmHg 41%
    08:00 +34°C° 0 mm 10 mps 716 mmHg 34%
    09:00 +37°C° 0 mm 12 mps 716 mmHg 28%
    10:00 +38°C° 0 mm 11 mps 716 mmHg 24%
    11:00 +39°C° 0 mm 9 mps 716 mmHg 19%
    12:00 +40°C° 0 mm 8 mps 716 mmHg 15%
    13:00 +40°C° 0 mm 8 mps 716 mmHg 14%
    14:00 +40°C° 0 mm 8 mps 715 mmHg 13%
    15:00 +40°C° 0 mm 8 mps 715 mmHg 12%
    16:00 +39°C° 0 mm 8 mps 715 mmHg 14%
    17:00 +38°C° 0 mm 8 mps 715 mmHg 15%
    18:00 +37°C° 0 mm 8 mps 715 mmHg 16%
    19:00 +34°C° 0 mm 9 mps 716 mmHg 19%
    20:00 +32°C° 0 mm 9 mps 717 mmHg 22%
    21:00 +29°C° 0 mm 9 mps 718 mmHg 25%
    22:00 +28°C° 0 mm 9 mps 718 mmHg 24%
    23:00 +26°C° 0 mm 9 mps 719 mmHg 23%

    Day after tomorrow, 20 October, Saturday

    Time Temperature Precipitation Wind Pressure Humidity
    00:00 +24°C° 0 mm 8 mps 719 mmHg 22%
    01:00 +23°C° 0 mm 8 mps 719 mmHg 27%
    02:00 +22°C° 0 mm 8 mps 719 mmHg 32%
    03:00 +21°C° 0 mm 8 mps 719 mmHg 36%
    04:00 +20°C° 0 mm 8 mps 719 mmHg 41%
    05:00 +18°C° 0 mm 8 mps 720 mmHg 45%
    06:00 +17°C° 0 mm 8 mps 720 mmHg 50%
    07:00 +18°C° 0 mm 8 mps 721 mmHg 45%
    08:00 +21°C° 0 mm 8 mps 721 mmHg 40%
    09:00 +23°C° 0 mm 7 mps 722 mmHg 35%
    10:00 +24°C° 0 mm 7 mps 721 mmHg 31%
    11:00 +27°C° 0 mm 6 mps 721 mmHg 27%
    12:00 +29°C° 0 mm 6 mps 721 mmHg 23%
    13:00 +30°C° 0 mm 5 mps 720 mmHg 21%
    14:00 +32°C° 0 mm 5 mps 719 mmHg 19%
    15:00 +32°C° 0 mm 4 mps 718 mmHg 17%
    16:00 +32°C° 0 mm 4 mps 719 mmHg 17%
    17:00 +32°C° 0 mm 4 mps 719 mmHg 17%
    18:00 +32°C° 0 mm 4 mps 719 mmHg 17%
    19:00 +29°C° 0 mm 4 mps 719 mmHg 19%
    20:00 +28°C° 0 mm 5 mps 720 mmHg 20%
    21:00 +27°C° 0 mm 6 mps 720 mmHg 21%
    22:00 +26°C° 0 mm 6 mps 720 mmHg 21%
    23:00 +24°C° 0 mm 6 mps 719 mmHg 22%

    21 October, Sunday

    Time Temperature Precipitation Wind Pressure Humidity
    00:00 +23°C° 0 mm 7 mps 719 mmHg 22%
    01:00 +22°C° 0 mm 6 mps 719 mmHg 22%
    02:00 +21°C° 0 mm 6 mps 718 mmHg 23%
    03:00 +21°C° 0 mm 6 mps 718 mmHg 23%
    04:00 +20°C° 0 mm 5 mps 718 mmHg 24%
    05:00 +20°C° 0 mm 5 mps 718 mmHg 24%
    06:00 +19°C° 0 mm 4 mps 718 mmHg 25%
    07:00 +22°C° 0 mm 5 mps 719 mmHg 22%
    08:00 +24°C° 0 mm 6 mps 719 mmHg 20%
    09:00 +27°C° 0 mm 7 mps 720 mmHg 17%
    10:00 +29°C° 0 mm 6 mps 719 mmHg 16%
    11:00 +32°C° 0 mm 5 mps 719 mmHg 16%
    12:00 +34°C° 0 mm 4 mps 718 mmHg 15%
    13:00 +35°C° 0 mm 4 mps 717 mmHg 13%
    14:00 +36°C° 0 mm 4 mps 716 mmHg 12%
    15:00 +37°C° 0 mm 5 mps 715 mmHg 10%
    16:00 +37°C° 0 mm 4 mps 715 mmHg 11%
    17:00 +36°C° 0 mm 4 mps 715 mmHg 11%
    18:00 +36°C° 0 mm 3 mps 715 mmHg 11%
    19:00 +34°C° 0 mm 3 mps 715 mmHg 12%
    20:00 +32°C° 0 mm 2 mps 716 mmHg 13%
    21:00 +30°C° 0 mm 2 mps 716 mmHg 14%
    22:00 +29°C° 0 mm 2 mps 716 mmHg 14%
    23:00 +29°C° 0 mm 3 mps 715 mmHg 15%

    22 October, Monday

    Time Temperature Precipitation Wind Pressure Humidity
    00:00 +28°C° 0 mm 3 mps 715 mmHg 15%
    01:00 +27°C° 0 mm 3 mps 714 mmHg 16%
    02:00 +26°C° 0 mm 3 mps 714 mmHg 18%
    03:00 +25°C° 0 mm 3 mps 713 mmHg 19%
    04:00 +25°C° 0 mm 3 mps 713 mmHg 19%
    05:00 +25°C° 0 mm 3 mps 714 mmHg 20%
    06:00 +25°C° 0 mm 3 mps 714 mmHg 20%
    07:00 +28°C° 0 mm 4 mps 714 mmHg 17%
    08:00 +32°C° 0 mm 5 mps 715 mmHg 14%
    09:00 +36°C° 0 mm 6 mps 716 mmHg 11%
    10:00 +38°C° 0 mm 7 mps 716 mmHg 11%
    11:00 +39°C° 0 mm 7 mps 715 mmHg 11%
    12:00 +40°C° 0 mm 7 mps 715 mmHg 10%
    13:00 +40°C° 0 mm 8 mps 714 mmHg 10%
    14:00 +41°C° 0 mm 8 mps 714 mmHg 9%
    15:00 +41°C° 0 mm 8 mps 714 mmHg 9%
    16:00 +40°C° 0 mm 8 mps 714 mmHg 10%
    17:00 +38°C° 0 mm 8 mps 714 mmHg 11%
    18:00 +37°C° 0 mm 8 mps 714 mmHg 12%
    19:00 +34°C° 0 mm 8 mps 715 mmHg 15%
    20:00 +32°C° 0 mm 8 mps 715 mmHg 19%
    21:00 +29°C° 0 mm 9 mps 716 mmHg 23%
    22:00 +28°C° 0 mm 8 mps 716 mmHg 27%
    23:00 +26°C° 0 mm 8 mps 717 mmHg 31%

    23 October, Tuesday

    Time Temperature Precipitation Wind Pressure Humidity
    00:00 +24°C° 0 mm 7 mps 717 mmHg 34%
    01:00 +23°C° 0 mm 8 mps 717 mmHg 38%
    02:00 +21°C° 0 mm 8 mps 717 mmHg 42%
    03:00 +19°C° 0 mm 9 mps 718 mmHg 45%
    04:00 +18°C° 0 mm 9 mps 718 mmHg 47%
    05:00 +17°C° 0 mm 9 mps 719 mmHg 48%
    06:00 +16°C° 0 mm 9 mps 719 mmHg 49%
    07:00 +17°C° 0 mm 8 mps 720 mmHg 45%
    08:00 +20°C° 0 mm 8 mps 720 mmHg 41%
    09:00 +21°C° 0 mm 8 mps 721 mmHg 36%
    10:00 +23°C° 0 mm 8 mps 720 mmHg 32%
    11:00 +26°C° 0 mm 7 mps 720 mmHg 28%
    12:00 +28°C° 0 mm 6 mps 719 mmHg 24%
    13:00 +29°C° 0 mm 6 mps 719 mmHg 23%
    14:00 +30°C° 0 mm 5 mps 718 mmHg 21%
    15:00 +32°C° 0 mm 5 mps 718 mmHg 19%
    16:00 +30°C° 0 mm 5 mps 718 mmHg 19%
    17:00 +30°C° 0 mm 5 mps 718 mmHg 20%
    18:00 +30°C° 0 mm 5 mps 718 mmHg 20%
    19:00 +28°C° 0 mm 5 mps 719 mmHg 21%
    20:00 +27°C° 0 mm 5 mps 719 mmHg 22%
    21:00 +26°C° 0 mm 5 mps 720 mmHg 24%
    22:00 +24°C° 0 mm 6 mps 719 mmHg 24%
    23:00 +23°C° 0 mm 6 mps 719 mmHg 24%
    Show more